Time,TemperatureF,DewpointF,PressureIn,WindDirection,WindDirectionDegrees,WindSpeedMPH,WindSpeedGustMPH,Humidity,HourlyPrecipIn,Conditions,Clouds,dailyrainin,SoftwareType,DateUTC
2013-02-03 00:00:00,21.8,19.8,29.91,SW,229,0.0,0.0,92,0.00,CLR,FEW,0.00,WeatherDisplay:10.37,2013-02-03 05:00:00,
2013-02-03 00:01:00,21.6,19.6,29.90,SW,229,0.0,0.0,92,0.00,CLR,FEW,0.00,WeatherDisplay:10.37,2013-02-03 05:01:00,
2013-02-03 00:02:00,21.6,19.6,29.90,SW,229,0.0,0.0,92,0.00,CLR,FEW,0.00,WeatherDisplay:10.37,2013-02-03 05:02:00,
2013-02-03 00:07:00,21.6,19.6,29.90,SW,229,0.0,0.0,92,0.00,CLR,FEW,0.00,WeatherDisplay:10.37,2013-02-03 05:07:00,
2013-02-03 00:12:00,21.6,19.6,29.89,SW,229,0.0,0.0,92,0.00,CLR,FEW,0.00,WeatherDisplay:10.37,2013-02-03 05:12:00,
2013-02-03 00:17:00,21.6,19.6,29.89,SW,229,0.0,0.0,92,0.00,CLR,FEW,0.00,WeatherDisplay:10.37,2013-02-03 05:17:00,
2013-02-03 00:22:00,21.7,20.0,29.89,SW,229,0.0,0.0,93,0.00,CLR,FEW,0.00,WeatherDisplay:10.37,2013-02-03 05:22:00,
2013-02-03 00:27:00,21.6,19.6,29.89,SW,229,0.0,0.0,92,0.00,CLR,FEW,0.00,WeatherDisplay:10.37,2013-02-03 05:27:00,
2013-02-03 00:32:00,21.6,19.9,29.89,SW,229,0.0,0.0,93,0.00,CLR,FEW,0.00,WeatherDisplay:10.37,2013-02-03 05:32:00,
2013-02-03 00:37:00,21.7,20.0,29.88,SW,229,0.0,0.0,93,0.00,CLR,FEW,0.00,WeatherDisplay:10.37,2013-02-03 05:37:00,
2013-02-03 00:42:00,21.6,19.9,29.88,SW,229,0.0,0.0,93,0.00,CLR,FEW,0.00,WeatherDisplay:10.37,2013-02-03 05:42:00,
2013-02-03 00:47:00,21.6,19.9,29.88,SW,229,0.0,0.0,93,0.00,CLR,FEW,0.00,WeatherDisplay:10.37,2013-02-03 05:47:00,
2013-02-03 00:52:00,21.6,19.9,29.88,SW,229,0.0,0.0,93,0.00,CLR,FEW,0.00,WeatherDisplay:10.37,2013-02-03 05:52:00,
2013-02-03 00:57:00,21.6,20.1,29.88,SW,229,0.0,0.0,94,0.00,CLR,FEW,0.00,WeatherDisplay:10.37,2013-02-03 05:57:00,
2013-02-03 01:02:00,21.6,20.1,29.87,SW,229,0.0,0.0,94,0.00,CLR,FEW,0.00,WeatherDisplay:10.37,2013-02-03 06:02:00,
2013-02-03 01:07:00,21.6,20.1,29.87,SW,229,0.0,0.0,94,0.00,CLR,FEW,0.00,WeatherDisplay:10.37,2013-02-03 06:07:00,
2013-02-03 01:12:00,21.6,20.1,29.87,SW,229,0.0,0.0,94,0.00,CLR,FEW,0.00,WeatherDisplay:10.37,2013-02-03 06:12:00,
2013-02-03 01:17:00,21.6,20.1,29.87,SW,229,0.0,0.0,94,0.00,CLR,FEW,0.00,WeatherDisplay:10.37,2013-02-03 06:17:00,
2013-02-03 01:22:00,21.6,20.1,29.86,SW,229,0.0,0.0,94,0.00,CLR,FEW,0.00,WeatherDisplay:10.37,2013-02-03 06:22:00,
2013-02-03 01:27:00,21.7,20.2,29.86,SW,229,0.0,0.0,94,0.00,CLR,FEW,0.00,WeatherDisplay:10.37,2013-02-03 06:27:00,
2013-02-03 01:32:00,21.7,20.2,29.86,SW,230,0.0,0.0,94,0.00,CLR,FEW,0.00,WeatherDisplay:10.37,2013-02-03 06:32:00,
2013-02-03 01:37:00,21.7,20.2,29.86,SW,229,0.0,0.0,94,0.00,CLR,FEW,0.00,WeatherDisplay:10.37,2013-02-03 06:37:00,
2013-02-03 01:42:00,21.7,20.2,29.86,SW,228,0.0,0.0,94,0.00,CLR,FEW,0.00,WeatherDisplay:10.37,2013-02-03 06:42:00,
2013-02-03 01:47:00,21.6,20.4,29.86,SW,229,0.0,0.0,95,0.00,CLR,FEW,0.00,WeatherDisplay:10.37,2013-02-03 06:47:00,
2013-02-03 01:52:00,21.6,20.4,29.86,SW,229,0.0,0.0,95,0.00,CLR,FEW,0.00,WeatherDisplay:10.37,2013-02-03 06:52:00,
2013-02-03 01:57:00,21.6,20.1,29.86,SW,229,0.0,0.0,94,0.00,CLR,FEW,0.00,WeatherDisplay:10.37,2013-02-03 06:57:00,
2013-02-03 02:02:00,21.3,20.1,29.86,SW,229,0.0,0.0,95,0.00,CLR,FEW,0.00,WeatherDisplay:10.37,2013-02-03 07:02:00,
2013-02-03 02:07:00,21.6,20.4,29.86,SW,229,0.0,0.0,95,0.00,CLR,FEW,0.00,WeatherDisplay:10.37,2013-02-03 07:07:00,
2013-02-03 02:12:00,21.6,20.4,29.85,SW,229,0.0,0.0,95,0.00,CLR,FEW,0.00,WeatherDisplay:10.37,2013-02-03 07:12:00,
2013-02-03 02:17:00,21.6,20.4,29.85,SW,229,0.0,0.0,95,0.00,CLR,FEW,0.00,WeatherDisplay:10.37,2013-02-03 07:17:00,
2013-02-03 02:22:00,21.8,20.6,29.86,SW,229,0.0,0.0,95,0.00,CLR,FEW,0.00,WeatherDisplay:10.37,2013-02-03 07:22:00,
2013-02-03 02:27:00,21.5,20.3,29.85,SW,229,0.0,0.0,95,0.00,CLR,FEW,0.00,WeatherDisplay:10.37,2013-02-03 07:27:00,
2013-02-03 02:32:00,21.4,20.2,29.85,SW,229,0.0,0.0,95,0.00,CLR,FEW,0.00,WeatherDisplay:10.37,2013-02-03 07:32:00,
2013-02-03 02:37:00,21.4,20.2,29.85,SW,229,0.0,0.0,95,0.00,CLR,FEW,0.00,WeatherDisplay:10.37,2013-02-03 07:37:00,
2013-02-03 02:42:00,21.4,20.2,29.84,SW,229,0.0,0.0,95,0.00,CLR,FEW,0.00,WeatherDisplay:10.37,2013-02-03 07:42:00,
2013-02-03 02:47:00,21.4,20.2,29.84,SW,229,0.0,0.0,95,0.00,CLR,FEW,0.00,WeatherDisplay:10.37,2013-02-03 07:47:00,
2013-02-03 02:52:00,21.4,20.2,29.84,SW,229,0.0,0.0,95,0.00,CLR,FEW,0.00,WeatherDisplay:10.37,2013-02-03 07:52:00,
2013-02-03 02:57:00,21.3,20.1,29.84,SW,229,0.0,0.0,95,0.00,CLR,FEW,0.00,WeatherDisplay:10.37,2013-02-03 07:57:00,
2013-02-03 03:02:00,21.3,20.1,29.83,SW,229,0.0,0.0,95,0.00,CLR,FEW,0.00,WeatherDisplay:10.37,2013-02-03 08:02:00,
2013-02-03 03:07:00,21.3,20.1,29.83,SW,229,0.0,0.0,95,0.00,CLR,FEW,0.00,WeatherDisplay:10.37,2013-02-03 08:07:00,
2013-02-03 03:12:00,21.2,20.2,29.83,SW,229,0.0,0.0,96,0.00,CLR,FEW,0.00,WeatherDisplay:10.37,2013-02-03 08:12:00,
2013-02-03 03:17:00,21.2,20.2,29.83,SW,229,0.0,0.0,96,0.00,CLR,FEW,0.00,WeatherDisplay:10.37,2013-02-03 08:17:00,
2013-02-03 03:22:00,21.2,20.2,29.83,SW,229,0.0,0.0,96,0.00,CLR,FEW,0.00,WeatherDisplay:10.37,2013-02-03 08:22:00,
2013-02-03 03:27:00,21.1,20.1,29.82,SW,229,0.0,0.0,96,0.00,CLR,FEW,0.00,WeatherDisplay:10.37,2013-02-03 08:27:00,
2013-02-03 03:32:00,21.1,20.1,29.82,SW,229,0.0,0.0,96,0.00,CLR,FEW,0.00,WeatherDisplay:10.37,2013-02-03 08:32:00,
2013-02-03 03:37:00,21.1,20.1,29.82,SW,229,0.0,0.0,96,0.00,CLR,FEW,0.00,WeatherDisplay:10.37,2013-02-03 08:37:00,
2013-02-03 03:42:00,21.1,20.1,29.82,SW,229,0.0,0.0,96,0.00,CLR,FEW,0.00,WeatherDisplay:10.37,2013-02-03 08:42:00,
2013-02-03 03:47:00,21.0,20.0,29.82,SW,229,0.0,0.0,96,0.00,CLR,FEW,0.00,WeatherDisplay:10.37,2013-02-03 08:47:00,
2013-02-03 03:52:00,20.9,19.9,29.81,SW,229,0.0,0.0,96,0.00,CLR,FEW,0.00,WeatherDisplay:10.37,2013-02-03 08:52:00,
2013-02-03 03:57:00,20.9,19.9,29.81,SW,229,0.0,0.0,96,0.00,CLR,FEW,0.00,WeatherDisplay:10.37,2013-02-03 08:57:00,
2013-02-03 04:02:00,20.8,19.8,29.81,SW,229,0.0,0.0,96,0.00,CLR,FEW,0.00,WeatherDisplay:10.37,2013-02-03 09:02:00,
2013-02-03 04:07:00,20.7,19.7,29.81,SW,229,0.0,0.0,96,0.00,CLR,FEW,0.00,WeatherDisplay:10.37,2013-02-03 09:07:00,
2013-02-03 04:12:00,20.7,19.7,29.81,SW,229,0.0,0.0,96,0.00,CLR,FEW,0.00,WeatherDisplay:10.37,2013-02-03 09:12:00,
2013-02-03 04:17:00,20.6,19.6,29.81,SW,229,0.0,0.0,96,0.00,CLR,FEW,0.00,WeatherDisplay:10.37,2013-02-03 09:17:00,
2013-02-03 04:22:00,20.6,19.6,29.81,SW,229,0.0,0.0,96,0.00,CLR,FEW,0.00,WeatherDisplay:10.37,2013-02-03 09:22:00,
2013-02-03 04:27:00,20.5,19.5,29.81,SW,229,0.0,0.0,96,0.00,CLR,FEW,0.00,WeatherDisplay:10.37,2013-02-03 09:27:00,
2013-02-03 04:32:00,20.5,19.5,29.81,SW,229,0.0,0.0,96,0.00,CLR,FEW,0.00,WeatherDisplay:10.37,2013-02-03 09:32:00,
2013-02-03 04:37:00,20.4,19.4,29.81,SW,229,0.0,0.0,96,0.00,CLR,FEW,0.00,WeatherDisplay:10.37,2013-02-03 09:37:00,
2013-02-03 04:42:00,20.3,19.3,29.81,SW,229,0.0,0.0,96,0.00,CLR,FEW,0.00,WeatherDisplay:10.37,2013-02-03 09:42:00,
2013-02-03 04:47:00,20.2,19.2,29.81,SW,229,0.0,0.0,96,0.00,CLR,FEW,0.00,WeatherDisplay:10.37,2013-02-03 09:47:00,
2013-02-03 04:52:00,20.1,19.1,29.80,SW,229,0.0,0.0,96,0.00,CLR,FEW,0.00,WeatherDisplay:10.37,2013-02-03 09:52:00,
2013-02-03 04:57:00,20.1,19.1,29.80,SW,229,0.0,0.0,96,0.00,CLR,FEW,0.00,WeatherDisplay:10.37,2013-02-03 09:57:00,
2013-02-03 05:02:00,20.1,19.1,29.80,SW,229,0.0,0.0,96,0.00,CLR,FEW,0.00,WeatherDisplay:10.37,2013-02-03 10:02:00,
2013-02-03 05:07:00,20.1,19.4,29.80,SW,229,0.0,0.0,97,0.00,CLR,FEW,0.00,WeatherDisplay:10.37,2013-02-03 10:07:00,
2013-02-03 05:12:00,20.1,19.4,29.80,SW,229,0.0,0.0,97,0.00,CLR,FEW,0.00,WeatherDisplay:10.37,2013-02-03 10:12:00,
2013-02-03 05:17:00,20.0,19.3,29.80,SW,229,0.0,0.0,97,0.00,CLR,FEW,0.00,WeatherDisplay:10.37,2013-02-03 10:17:00,
2013-02-03 05:22:00,19.9,19.2,29.80,SW,229,0.0,0.0,97,0.00,CLR,FEW,0.00,WeatherDisplay:10.37,2013-02-03 10:22:00,
2013-02-03 05:27:00,19.9,19.2,29.80,SW,229,1.0,1.0,97,0.00,CLR,FEW,0.00,WeatherDisplay:10.37,2013-02-03 10:27:00,
2013-02-03 05:32:00,19.9,19.2,29.80,WSW,237,2.3,2.3,97,0.00,CLR,FEW,0.00,WeatherDisplay:10.37,2013-02-03 10:32:00,
2013-02-03 05:37:00,20.0,19.3,29.79,WSW,243,3.5,3.5,97,0.00,CLR,FEW,0.00,WeatherDisplay:10.37,2013-02-03 10:37:00,
2013-02-03 05:42:00,20.0,19.3,29.80,WSW,243,1.1,1.1,97,0.00,CLR,FEW,0.00,WeatherDisplay:10.37,2013-02-03 10:42:00,
2013-02-03 05:47:00,20.1,19.4,29.80,WSW,243,1.1,1.1,97,0.00,CLR,FEW,0.00,WeatherDisplay:10.37,2013-02-03 10:47:00,
2013-02-03 05:52:00,20.2,19.5,29.80,WSW,243,0.0,0.0,97,0.00,CLR,FEW,0.00,WeatherDisplay:10.37,2013-02-03 10:52:00,
2013-02-03 05:57:00,20.3,19.8,29.80,WSW,243,0.0,0.0,98,0.00,CLR,FEW,0.00,WeatherDisplay:10.37,2013-02-03 10:57:00,
2013-02-03 06:02:00,20.4,19.9,29.80,WSW,243,0.0,0.3,98,0.00,CLR,FEW,0.00,WeatherDisplay:10.37,2013-02-03 11:02:00,
2013-02-03 06:07:00,20.5,20.0,29.80,WSW,243,1.1,0.0,98,0.00,CLR,FEW,0.00,WeatherDisplay:10.37,2013-02-03 11:07:00,
2013-02-03 06:12:00,20.5,20.0,29.80,WSW,246,2.3,2.3,98,0.00,CLR,FEW,0.00,WeatherDisplay:10.37,2013-02-03 11:12:00,
2013-02-03 06:17:00,20.5,20.0,29.80,West,262,3.5,3.5,98,0.00,CLR,FEW,0.00,WeatherDisplay:10.37,2013-02-03 11:17:00,
2013-02-03 06:22:00,20.6,20.1,29.80,West,263,3.5,3.5,98,0.00,CLR,FEW,0.00,WeatherDisplay:10.37,2013-02-03 11:22:00,
2013-02-03 06:27:00,20.6,20.1,29.80,West,263,1.1,1.1,98,0.00,CLR,FEW,0.00,WeatherDisplay:10.37,2013-02-03 11:27:00,
2013-02-03 06:32:00,20.6,20.1,29.80,West,263,0.0,0.0,98,0.00,CLR,FEW,0.00,WeatherDisplay:10.37,2013-02-03 11:32:00,
2013-02-03 06:37:00,20.6,20.1,29.80,West,263,0.0,0.0,98,0.00,CLR,FEW,0.00,WeatherDisplay:10.37,2013-02-03 11:37:00,
2013-02-03 06:43:00,20.6,19.9,29.81,West,263,0.0,0.0,97,0.00,CLR,FEW,0.00,WeatherDisplay:10.37,2013-02-03 11:43:00,
2013-02-03 06:48:00,20.6,20.1,29.81,West,263,0.0,0.0,98,0.00,CLR,FEW,0.00,WeatherDisplay:10.37,2013-02-03 11:48:00,
2013-02-03 06:53:00,20.6,20.1,29.81,West,263,0.0,0.0,98,0.00,CLR,FEW,0.00,WeatherDisplay:10.37,2013-02-03 11:53:00,
2013-02-03 06:58:00,20.6,20.1,29.81,West,264,0.0,0.0,98,0.00,CLR,FEW,0.00,WeatherDisplay:10.37,2013-02-03 11:58:00,
2013-02-03 07:03:00,20.6,20.1,29.81,West,263,0.0,0.0,98,0.00,CLR,FEW,0.00,WeatherDisplay:10.37,2013-02-03 12:03:00,
2013-02-03 07:08:00,20.6,20.1,29.81,West,263,0.0,0.0,98,0.00,CLR,FEW,0.00,WeatherDisplay:10.37,2013-02-03 12:08:00,
2013-02-03 07:13:00,20.6,20.1,29.81,West,263,0.0,0.0,98,0.00,CLR,FEW,0.00,WeatherDisplay:10.37,2013-02-03 12:13:00,
2013-02-03 07:18:00,20.7,20.2,29.81,West,263,1.1,1.1,98,0.00,CLR,FEW,0.00,WeatherDisplay:10.37,2013-02-03 12:18:00,
2013-02-03 07:23:00,20.7,20.2,29.82,West,263,0.0,0.0,98,0.00,CLR,FEW,0.00,WeatherDisplay:10.37,2013-02-03 12:23:00,
2013-02-03 07:28:00,20.6,20.1,29.82,West,263,0.0,0.0,98,0.00,CLR,FEW,0.00,WeatherDisplay:10.37,2013-02-03 12:28:00,
2013-02-03 07:33:00,20.8,20.3,29.82,West,263,0.0,0.0,98,0.00,CLR,FEW,0.00,WeatherDisplay:10.37,2013-02-03 12:33:00,
2013-02-03 07:38:00,20.8,20.3,29.82,West,263,0.0,0.0,98,0.00,CLR,FEW,0.00,WeatherDisplay:10.37,2013-02-03 12:38:00,
2013-02-03 07:43:00,20.8,20.3,29.82,West,263,0.0,0.0,98,0.00,CLR,FEW,0.00,WeatherDisplay:10.37,2013-02-03 12:43:00,
2013-02-03 07:48:00,21.0,20.5,29.83,West,263,0.0,0.0,98,0.00,CLR,FEW,0.00,WeatherDisplay:10.37,2013-02-03 12:48:00,
2013-02-03 07:53:00,20.8,20.3,29.82,West,263,0.0,0.0,98,0.00,CLR,FEW,0.00,WeatherDisplay:10.37,2013-02-03 12:53:00,
2013-02-03 07:58:00,20.8,20.3,29.83,West,263,0.0,0.0,98,0.00,CLR,FEW,0.00,WeatherDisplay:10.37,2013-02-03 12:58:00,
2013-02-03 08:03:00,20.7,20.2,29.82,NE,37,2.3,2.3,98,0.00,CLR,FEW,0.00,WeatherDisplay:10.37,2013-02-03 13:03:00,
2013-02-03 08:08:00,20.7,20.2,29.82,NE,37,1.1,0.0,98,0.00,CLR,FEW,0.00,WeatherDisplay:10.37,2013-02-03 13:08:00,
2013-02-03 08:13:00,20.7,20.2,29.82,NE,45,3.5,3.5,98,0.00,CLR,FEW,0.00,WeatherDisplay:10.37,2013-02-03 13:13:00,
2013-02-03 08:18:00,20.7,20.2,29.82,NE,39,2.0,2.0,98,0.00,CLR,FEW,0.00,WeatherDisplay:10.37,2013-02-03 13:18:00,
2013-02-03 08:23:00,20.7,20.2,29.82,NE,41,3.5,3.5,98,0.00,CLR,FEW,0.00,WeatherDisplay:10.37,2013-02-03 13:23:00,
2013-02-03 08:28:00,20.7,20.2,29.82,NE,42,2.0,2.0,98,0.00,CLR,FEW,0.00,WeatherDisplay:10.37,2013-02-03 13:28:00,
2013-02-03 08:33:00,20.8,20.3,29.82,NE,37,3.5,3.5,98,0.00,CLR,FEW,0.00,WeatherDisplay:10.37,2013-02-03 13:33:00,
2013-02-03 08:38:00,20.9,20.7,29.81,NE,40,2.0,2.0,99,0.00,CLR,FEW,0.00,WeatherDisplay:10.37,2013-02-03 13:38:00,
2013-02-03 08:43:00,21.1,20.6,29.81,NE,38,2.3,2.3,98,0.00,CLR,FEW,0.00,WeatherDisplay:10.37,2013-02-03 13:43:00,
2013-02-03 08:48:00,21.2,21.0,29.81,NE,37,3.5,3.5,99,0.00,CLR,FEW,0.00,WeatherDisplay:10.37,2013-02-03 13:48:00,
2013-02-03 08:53:00,21.3,20.8,29.80,NE,35,3.5,3.5,98,0.00,CLR,FEW,0.00,WeatherDisplay:10.37,2013-02-03 13:53:00,
2013-02-03 08:58:00,21.4,20.9,29.80,NNE,32,4.0,4.0,98,0.00,CLR,FEW,0.00,WeatherDisplay:10.37,2013-02-03 13:58:00,
2013-02-03 09:03:00,21.4,20.9,29.80,NE,47,4.6,4.6,98,0.00,CLR,FEW,0.00,WeatherDisplay:10.37,2013-02-03 14:03:00,
2013-02-03 09:08:00,21.4,20.9,29.79,ENE,58,3.5,3.5,98,0.00,CLR,FEW,0.00,WeatherDisplay:10.37,2013-02-03 14:08:00,
2013-02-03 09:13:00,21.6,21.1,29.79,NNE,25,5.8,5.8,98,0.00,CLR,FEW,0.00,WeatherDisplay:10.37,2013-02-03 14:13:00,
2013-02-03 09:18:00,21.7,21.0,29.79,NE,39,4.6,4.6,97,0.00,CLR,FEW,0.00,WeatherDisplay:10.37,2013-02-03 14:18:00,
2013-02-03 09:23:00,21.8,21.1,29.78,NE,56,5.8,5.8,97,0.00,CLR,FEW,0.00,WeatherDisplay:10.37,2013-02-03 14:23:00,
2013-02-03 09:28:00,21.9,21.2,29.78,ENE,63,4.6,4.6,97,0.00,CLR,FEW,0.00,WeatherDisplay:10.37,2013-02-03 14:28:00,
2013-02-03 09:33:00,22.1,21.1,29.78,ENE,60,5.8,5.8,96,0.00,CLR,FEW,0.00,WeatherDisplay:10.37,2013-02-03 14:33:00,
2013-02-03 09:38:00,22.0,21.0,29.78,NNE,33,6.9,6.9,96,0.00,CLR,FEW,0.00,WeatherDisplay:10.37,2013-02-03 14:38:00,
2013-02-03 09:43:00,22.1,20.9,29.78,NNE,30,2.3,2.3,95,0.00,CLR,FEW,0.00,WeatherDisplay:10.37,2013-02-03 14:43:00,
2013-02-03 09:48:00,22.4,21.2,29.77,NNE,31,3.5,3.5,95,0.00,CLR,FEW,0.00,WeatherDisplay:10.37,2013-02-03 14:48:00,
2013-02-03 09:53:00,22.7,21.2,29.77,ENE,62,4.0,4.0,94,0.00,CLR,FEW,0.00,WeatherDisplay:10.37,2013-02-03 14:53:00,
2013-02-03 09:58:00,22.7,21.0,29.77,ENE,69,3.5,3.5,93,0.00,CLR,FEW,0.00,WeatherDisplay:10.37,2013-02-03 14:58:00,
2013-02-03 10:03:00,22.9,20.9,29.77,NNE,31,3.0,3.0,92,0.00,CLR,FEW,0.00,WeatherDisplay:10.37,2013-02-03 15:03:00,
2013-02-03 10:08:00,22.9,20.7,29.76,NNE,33,3.5,3.5,91,0.00,CLR,FEW,0.00,WeatherDisplay:10.37,2013-02-03 15:08:00,
2013-02-03 10:13:00,23.0,20.5,29.76,NE,34,4.6,4.6,90,0.00,CLR,FEW,0.00,WeatherDisplay:10.37,2013-02-03 15:13:00,
2013-02-03 10:18:00,23.3,20.5,29.76,NNE,23,6.9,6.9,89,0.00,CLR,FEW,0.00,WeatherDisplay:10.37,2013-02-03 15:18:00,
2013-02-03 10:23:00,23.4,20.4,29.76,North,3,4.0,4.0,88,0.00,CLR,FEW,0.00,WeatherDisplay:10.37,2013-02-03 15:23:00,
2013-02-03 10:28:00,23.5,20.2,29.76,North,7,4.6,4.6,87,0.00,CLR,FEW,0.00,WeatherDisplay:10.37,2013-02-03 15:28:00,
2013-02-03 10:33:00,23.7,20.1,29.75,NNW,348,3.5,3.5,86,0.00,CLR,FEW,0.00,WeatherDisplay:10.37,2013-02-03 15:33:00,
2013-02-03 10:38:00,23.6,19.8,29.75,NNE,16,3.5,3.5,85,0.00,CLR,FEW,0.00,WeatherDisplay:10.37,2013-02-03 15:38:00,
2013-02-03 10:43:00,24.0,20.1,29.75,NE,45,4.0,4.0,85,0.00,CLR,FEW,0.00,WeatherDisplay:10.37,2013-02-03 15:43:00,
2013-02-03 10:48:00,24.3,20.2,29.75,ENE,59,3.5,3.5,84,0.00,CLR,FEW,0.00,WeatherDisplay:10.37,2013-02-03 15:48:00,
2013-02-03 10:53:00,24.4,20.0,29.75,East,79,4.6,4.6,83,0.00,CLR,FEW,0.00,WeatherDisplay:10.37,2013-02-03 15:53:00,
2013-02-03 10:58:00,24.5,19.8,29.75,ENE,78,1.1,0.0,82,0.00,CLR,FEW,0.00,WeatherDisplay:10.37,2013-02-03 15:58:00,
2013-02-03 11:03:00,24.6,19.9,29.74,NE,38,3.5,3.5,82,0.00,CLR,FEW,0.00,WeatherDisplay:10.37,2013-02-03 16:03:00,
2013-02-03 11:08:00,24.5,19.5,29.74,NE,42,3.5,3.5,81,0.00,CLR,FEW,0.00,WeatherDisplay:10.37,2013-02-03 16:08:00,
2013-02-03 11:13:00,24.6,19.3,29.74,North,9,0.0,0.4,80,0.00,CLR,FEW,0.00,WeatherDisplay:10.37,2013-02-03 16:13:00,
2013-02-03 11:18:00,25.0,19.7,29.73,NE,44,4.0,4.0,80,0.00,CLR,FEW,0.00,WeatherDisplay:10.37,2013-02-03 16:18:00,
2013-02-03 11:23:00,24.9,19.3,29.73,East,92,4.6,4.6,79,0.00,CLR,FEW,0.00,WeatherDisplay:10.37,2013-02-03 16:23:00,
2013-02-03 11:28:00,25.2,19.6,29.73,East,92,3.0,3.0,79,0.00,CLR,FEW,0.00,WeatherDisplay:10.37,2013-02-03 16:28:00,
2013-02-03 11:33:00,25.5,19.6,29.73,SE,136,2.3,0.0,78,0.00,CLR,FEW,0.00,WeatherDisplay:10.37,2013-02-03 16:33:00,
2013-02-03 11:38:00,25.8,19.9,29.72,SE,135,0.0,0.0,78,0.00,CLR,FEW,0.00,WeatherDisplay:10.37,2013-02-03 16:38:00,
2013-02-03 11:43:00,26.0,20.1,29.72,SE,135,0.0,0.0,78,0.00,CLR,FEW,0.00,WeatherDisplay:10.37,2013-02-03 16:43:00,
2013-02-03 11:48:00,26.0,19.8,29.71,SSE,165,5.0,5.0,77,0.00,CLR,FEW,0.00,WeatherDisplay:10.37,2013-02-03 16:48:00,
2013-02-03 11:53:00,25.5,18.7,29.71,SSE,165,3.5,3.5,75,0.00,CLR,FEW,0.00,WeatherDisplay:10.37,2013-02-03 16:53:00,
2013-02-03 11:58:00,25.6,19.1,29.70,South,177,3.5,3.5,76,0.00,CLR,FEW,0.00,WeatherDisplay:10.37,2013-02-03 16:58:00,
2013-02-03 12:03:00,25.7,18.9,29.70,South,190,3.5,3.5,75,0.00,CLR,FEW,0.00,WeatherDisplay:10.37,2013-02-03 17:03:00,
2013-02-03 12:08:00,25.8,19.0,29.70,SSW,193,5.8,5.8,75,0.00,CLR,FEW,0.00,WeatherDisplay:10.37,2013-02-03 17:08:00,
2013-02-03 12:13:00,26.0,19.2,29.69,SSW,193,2.3,0.0,75,0.00,CLR,FEW,0.00,WeatherDisplay:10.37,2013-02-03 17:13:00,
2013-02-03 12:18:00,26.2,19.0,29.69,SSE,152,1.1,1.1,74,0.00,CLR,FEW,0.00,WeatherDisplay:10.37,2013-02-03 17:18:00,
2013-02-03 12:23:00,26.1,18.6,29.69,South,169,3.5,3.5,73,0.00,CLR,FEW,0.00,WeatherDisplay:10.37,2013-02-03 17:23:00,
2013-02-03 12:28:00,26.3,18.8,29.68,South,169,3.0,3.0,73,0.00,CLR,FEW,0.00,WeatherDisplay:10.37,2013-02-03 17:28:00,
2013-02-03 12:33:00,26.4,18.6,29.68,SSE,164,3.5,3.5,72,0.00,CLR,FEW,0.00,WeatherDisplay:10.37,2013-02-03 17:33:00,
2013-02-03 12:38:00,26.5,18.7,29.68,SSE,163,1.1,1.1,72,0.00,CLR,FEW,0.00,WeatherDisplay:10.37,2013-02-03 17:38:00,
2013-02-03 12:43:00,26.7,18.9,29.67,SSE,163,1.0,1.0,72,0.00,CLR,FEW,0.00,WeatherDisplay:10.37,2013-02-03 17:43:00,
2013-02-03 12:48:00,26.9,18.7,29.67,SW,217,2.3,0.0,71,0.00,CLR,FEW,0.00,WeatherDisplay:10.37,2013-02-03 17:48:00,
2013-02-03 12:53:00,27.1,18.9,29.67,SSW,209,3.5,3.5,71,0.00,CLR,FEW,0.00,WeatherDisplay:10.37,2013-02-03 17:53:00,
2013-02-03 12:58:00,27.3,18.8,29.66,SSW,209,3.5,3.5,70,0.00,CLR,FEW,0.01,WeatherDisplay:10.37,2013-02-03 17:58:00,
2013-02-03 13:03:00,27.0,18.5,29.66,SSW,209,2.3,2.3,70,0.01,RA,FEW,0.01,WeatherDisplay:10.37,2013-02-03 18:03:00,
2013-02-03 13:08:00,27.1,18.6,29.65,WSW,244,3.5,3.5,70,0.01,CLR,FEW,0.01,WeatherDisplay:10.37,2013-02-03 18:08:00,
2013-02-03 13:13:00,27.3,18.5,29.65,NNW,337,5.0,5.0,69,0.01,CLR,FEW,0.01,WeatherDisplay:10.37,2013-02-03 18:13:00,
2013-02-03 13:18:00,27.3,18.5,29.65,WNW,299,0.0,0.0,69,0.01,CLR,FEW,0.01,WeatherDisplay:10.37,2013-02-03 18:18:00,
2013-02-03 13:23:00,27.7,18.8,29.65,NW,317,2.3,2.3,69,0.01,CLR,FEW,0.01,WeatherDisplay:10.37,2013-02-03 18:23:00,
2013-02-03 13:28:00,27.6,18.8,29.64,NW,317,3.5,3.5,69,0.01,CLR,FEW,0.01,WeatherDisplay:10.37,2013-02-03 18:28:00,
2013-02-03 13:33:00,27.0,17.8,29.64,NW,316,3.5,3.5,68,0.01,CLR,FEW,0.01,WeatherDisplay:10.37,2013-02-03 18:33:00,
2013-02-03 13:38:00,27.2,18.0,29.63,NW,316,0.0,0.0,68,0.01,CLR,FEW,0.01,WeatherDisplay:10.37,2013-02-03 18:38:00,
2013-02-03 13:43:00,27.9,18.7,29.63,NW,310,3.5,3.5,68,0.01,CLR,FEW,0.01,WeatherDisplay:10.37,2013-02-03 18:43:00,
2013-02-03 13:48:00,27.8,18.3,29.63,NW,321,3.5,3.5,67,0.01,CLR,FEW,0.01,WeatherDisplay:10.37,2013-02-03 18:48:00,
2013-02-03 13:53:00,27.6,18.1,29.63,NNW,336,2.3,0.0,67,0.01,CLR,FEW,0.01,WeatherDisplay:10.37,2013-02-03 18:53:00,
2013-02-03 13:58:00,27.7,17.8,29.62,NNW,336,3.5,3.5,66,0.01,CLR,FEW,0.01,WeatherDisplay:10.37,2013-02-03 18:58:00,
2013-02-03 14:03:00,27.8,17.9,29.62,NNW,339,1.1,1.1,66,0.00,CLR,FEW,0.01,WeatherDisplay:10.37,2013-02-03 19:03:00,
2013-02-03 14:08:00,28.0,18.1,29.62,North,10,0.0,0.1,66,0.00,CLR,FEW,0.01,WeatherDisplay:10.37,2013-02-03 19:08:00,
2013-02-03 14:13:00,28.6,18.7,29.62,West,276,3.5,3.5,66,0.00,CLR,FEW,0.01,WeatherDisplay:10.37,2013-02-03 19:13:00,
2013-02-03 14:18:00,28.2,17.6,29.62,West,280,3.5,3.5,64,0.00,CLR,FEW,0.01,WeatherDisplay:10.37,2013-02-03 19:18:00,
2013-02-03 14:23:00,28.2,17.6,29.62,West,276,3.5,0.0,64,0.00,CLR,FEW,0.01,WeatherDisplay:10.37,2013-02-03 19:23:00,
2013-02-03 14:28:00,28.2,17.2,29.62,West,268,3.5,3.5,63,0.00,CLR,FEW,0.01,WeatherDisplay:10.37,2013-02-03 19:28:00,
2013-02-03 14:33:00,28.2,17.2,29.61,West,266,3.5,3.5,63,0.00,CLR,FEW,0.01,WeatherDisplay:10.37,2013-02-03 19:33:00,
2013-02-03 14:38:00,28.7,17.7,29.62,WSW,256,3.5,3.5,63,0.00,CLR,FEW,0.01,WeatherDisplay:10.37,2013-02-03 19:38:00,
2013-02-03 14:43:00,28.6,17.6,29.62,WNW,286,4.0,4.0,63,0.00,CLR,FEW,0.01,WeatherDisplay:10.37,2013-02-03 19:43:00,
2013-02-03 14:48:00,28.9,17.9,29.61,West,279,3.5,3.5,63,0.00,CLR,FEW,0.01,WeatherDisplay:10.37,2013-02-03 19:48:00,
2013-02-03 14:53:00,29.2,18.2,29.62,West,279,0.0,0.0,63,0.00,CLR,FEW,0.01,WeatherDisplay:10.37,2013-02-03 19:53:00,
2013-02-03 14:58:00,29.2,17.4,29.61,WNW,297,7.0,7.0,61,0.00,CLR,FEW,0.01,WeatherDisplay:10.37,2013-02-03 19:58:00,
2013-02-03 15:03:00,28.9,17.1,29.61,West,271,6.0,6.0,61,0.00,CLR,FEW,0.01,WeatherDisplay:10.37,2013-02-03 20:03:00,
2013-02-03 15:08:00,28.9,17.1,29.61,West,268,5.8,5.8,61,0.00,CLR,FEW,0.01,WeatherDisplay:10.37,2013-02-03 20:08:00,
2013-02-03 15:13:00,28.9,17.1,29.61,West,267,6.0,6.0,61,0.00,CLR,FEW,0.01,WeatherDisplay:10.37,2013-02-03 20:13:00,
2013-02-03 15:18:00,29.0,17.2,29.61,SW,236,5.0,5.0,61,0.00,CLR,FEW,0.01,WeatherDisplay:10.37,2013-02-03 20:18:00,
2013-02-03 15:23:00,29.2,17.4,29.61,West,274,6.9,6.9,61,0.00,CLR,FEW,0.01,WeatherDisplay:10.37,2013-02-03 20:23:00,
2013-02-03 15:28:00,29.0,16.8,29.61,West,276,8.1,8.1,60,0.00,CLR,FEW,0.01,WeatherDisplay:10.37,2013-02-03 20:28:00,
2013-02-03 15:33:00,28.9,16.7,29.61,West,266,9.2,9.2,60,0.00,CLR,FEW,0.01,WeatherDisplay:10.37,2013-02-03 20:33:00,
2013-02-03 15:39:00,29.2,17.0,29.61,WSW,258,6.9,6.9,60,0.00,CLR,FEW,0.01,WeatherDisplay:10.37,2013-02-03 20:39:00,
2013-02-03 15:44:00,29.4,17.2,29.61,WSW,258,8.1,8.1,60,0.00,CLR,FEW,0.01,WeatherDisplay:10.37,2013-02-03 20:44:00,
2013-02-03 15:49:00,29.4,17.2,29.61,WSW,249,4.6,4.6,60,0.00,CLR,FEW,0.01,WeatherDisplay:10.37,2013-02-03 20:49:00,
2013-02-03 15:54:00,29.7,17.5,29.61,West,276,13.8,13.8,60,0.00,CLR,FEW,0.01,WeatherDisplay:10.37,2013-02-03 20:54:00,
2013-02-03 15:59:00,29.1,16.5,29.61,North,5,5.8,5.8,59,0.00,CLR,FEW,0.01,WeatherDisplay:10.37,2013-02-03 20:59:00,
2013-02-03 16:04:00,28.6,16.1,29.61,NNE,15,3.5,3.5,59,0.00,CLR,FEW,0.01,WeatherDisplay:10.37,2013-02-03 21:04:00,
2013-02-03 16:09:00,28.5,16.4,29.61,NNE,15,1.1,1.1,60,0.00,CLR,FEW,0.01,WeatherDisplay:10.37,2013-02-03 21:09:00,
2013-02-03 16:14:00,28.4,16.3,29.62,North,349,4.6,4.6,60,0.00,CLR,FEW,0.01,WeatherDisplay:10.37,2013-02-03 21:14:00,
2013-02-03 16:19:00,28.2,15.7,29.61,North,11,4.6,4.6,59,0.00,CLR,FEW,0.01,WeatherDisplay:10.37,2013-02-03 21:19:00,
2013-02-03 16:24:00,28.1,15.6,29.61,North,0,3.5,3.5,59,0.00,CLR,FEW,0.01,WeatherDisplay:10.37,2013-02-03 21:24:00,
2013-02-03 16:29:00,28.4,16.3,29.61,NNW,336,5.8,5.8,60,0.00,CLR,FEW,0.01,WeatherDisplay:10.37,2013-02-03 21:29:00,
2013-02-03 16:34:00,28.5,16.4,29.61,West,281,6.9,6.9,60,0.00,CLR,FEW,0.01,WeatherDisplay:10.37,2013-02-03 21:34:00,
2013-02-03 16:39:00,28.6,16.5,29.61,West,265,6.0,6.0,60,0.00,CLR,FEW,0.01,WeatherDisplay:10.37,2013-02-03 21:39:00,
2013-02-03 16:44:00,29.0,17.2,29.61,West,278,5.8,5.8,61,0.00,CLR,FEW,0.01,WeatherDisplay:10.37,2013-02-03 21:44:00,
2013-02-03 16:49:00,28.6,16.8,29.61,WNW,290,3.5,3.5,61,0.00,CLR,FEW,0.01,WeatherDisplay:10.37,2013-02-03 21:49:00,
2013-02-03 16:54:00,28.2,16.5,29.61,NW,321,5.8,5.8,61,0.00,CLR,FEW,0.01,WeatherDisplay:10.37,2013-02-03 21:54:00,
2013-02-03 16:59:00,27.9,16.2,29.61,WNW,303,6.9,6.9,61,0.00,CLR,FEW,0.01,WeatherDisplay:10.37,2013-02-03 21:59:00,
2013-02-03 17:04:00,27.7,16.0,29.61,WNW,296,6.9,6.9,61,0.00,CLR,FEW,0.01,WeatherDisplay:10.37,2013-02-03 22:04:00,
2013-02-03 17:09:00,27.5,15.8,29.61,NW,310,4.6,4.6,61,0.00,CLR,FEW,0.01,WeatherDisplay:10.37,2013-02-03 22:09:00,
2013-02-03 17:14:00,27.5,15.8,29.61,NW,312,5.0,5.0,61,0.00,CLR,FEW,0.01,WeatherDisplay:10.37,2013-02-03 22:14:00,
2013-02-03 17:19:00,27.3,15.6,29.62,WNW,290,3.5,3.5,61,0.00,CLR,FEW,0.01,WeatherDisplay:10.37,2013-02-03 22:19:00,
2013-02-03 17:24:00,27.2,15.5,29.62,NW,308,11.5,11.5,61,0.00,CLR,FEW,0.01,WeatherDisplay:10.37,2013-02-03 22:24:00,
2013-02-03 17:29:00,26.9,15.6,29.62,WNW,292,5.8,5.8,62,0.00,CLR,FEW,0.01,WeatherDisplay:10.37,2013-02-03 22:29:00,
2013-02-03 17:34:00,26.8,15.5,29.62,NW,324,2.3,2.3,62,0.00,CLR,FEW,0.01,WeatherDisplay:10.37,2013-02-03 22:34:00,
2013-02-03 17:39:00,26.6,15.3,29.62,NW,317,4.6,4.6,62,0.00,CLR,FEW,0.01,WeatherDisplay:10.37,2013-02-03 22:39:00,
2013-02-03 17:44:00,26.5,15.2,29.62,NW,306,3.5,3.5,62,0.00,CLR,FEW,0.01,WeatherDisplay:10.37,2013-02-03 22:44:00,
2013-02-03 17:49:00,26.4,15.1,29.62,NW,304,4.6,4.6,62,0.00,CLR,FEW,0.01,WeatherDisplay:10.37,2013-02-03 22:49:00,
2013-02-03 17:54:00,26.4,15.5,29.62,NW,306,3.5,3.5,63,0.00,CLR,FEW,0.01,WeatherDisplay:10.37,2013-02-03 22:54:00,
2013-02-03 17:59:00,26.3,15.4,29.62,WNW,298,3.5,3.5,63,0.00,CLR,FEW,0.01,WeatherDisplay:10.37,2013-02-03 22:59:00,
2013-02-03 18:04:00,26.3,15.4,29.62,WNW,290,6.0,6.0,63,0.00,CLR,FEW,0.01,WeatherDisplay:10.37,2013-02-03 23:04:00,
2013-02-03 18:09:00,26.3,15.4,29.63,WNW,284,3.5,3.5,63,0.00,CLR,FEW,0.01,WeatherDisplay:10.37,2013-02-03 23:09:00,
2013-02-03 18:14:00,26.3,15.4,29.62,WNW,286,3.5,3.5,63,0.00,CLR,FEW,0.01,WeatherDisplay:10.37,2013-02-03 23:14:00,
2013-02-03 18:19:00,26.2,15.7,29.63,West,281,3.5,3.5,64,0.00,CLR,FEW,0.01,WeatherDisplay:10.37,2013-02-03 23:19:00,
2013-02-03 18:24:00,26.3,15.8,29.63,West,280,3.5,3.5,64,0.00,CLR,FEW,0.01,WeatherDisplay:10.37,2013-02-03 23:24:00,
2013-02-03 18:29:00,26.3,15.8,29.63,WNW,282,4.6,4.6,64,0.00,CLR,FEW,0.01,WeatherDisplay:10.37,2013-02-03 23:29:00,
2013-02-03 18:34:00,26.5,16.3,29.63,West,275,3.5,3.5,65,0.00,CLR,FEW,0.01,WeatherDisplay:10.37,2013-02-03 23:34:00,
2013-02-03 18:39:00,26.4,16.2,29.63,West,262,4.6,4.6,65,0.00,CLR,FEW,0.01,WeatherDisplay:10.37,2013-02-03 23:39:00,
2013-02-03 18:44:00,26.3,16.5,29.63,West,259,3.5,3.5,66,0.00,CLR,FEW,0.01,WeatherDisplay:10.37,2013-02-03 23:44:00,
2013-02-03 18:49:00,26.2,16.4,29.63,West,265,3.5,3.5,66,0.00,CLR,FEW,0.01,WeatherDisplay:10.37,2013-02-03 23:49:00,
2013-02-03 18:54:00,26.2,16.4,29.63,WSW,256,4.6,4.6,66,0.00,CLR,FEW,0.01,WeatherDisplay:10.37,2013-02-03 23:54:00,
2013-02-03 18:59:00,26.2,16.7,29.63,West,265,5.8,5.8,67,0.00,CLR,FEW,0.01,WeatherDisplay:10.37,2013-02-03 23:59:00,
2013-02-03 19:04:00,26.2,16.7,29.63,West,265,4.6,4.6,67,0.00,CLR,FEW,0.01,WeatherDisplay:10.37,2013-02-04 00:04:00,
2013-02-03 19:09:00,26.1,16.6,29.64,West,264,5.8,5.8,67,0.00,CLR,FEW,0.01,WeatherDisplay:10.37,2013-02-04 00:09:00,
2013-02-03 19:14:00,26.0,16.5,29.64,West,268,4.6,4.6,67,0.00,CLR,FEW,0.01,WeatherDisplay:10.37,2013-02-04 00:14:00,
2013-02-03 19:19:00,25.9,16.4,29.64,West,273,8.1,8.1,67,0.00,CLR,FEW,0.01,WeatherDisplay:10.37,2013-02-04 00:19:00,
2013-02-03 19:24:00,25.9,16.4,29.64,West,264,4.6,4.6,67,0.00,CLR,FEW,0.01,WeatherDisplay:10.37,2013-02-04 00:24:00,
2013-02-03 19:29:00,25.8,16.3,29.64,West,271,4.6,4.6,67,0.00,CLR,FEW,0.01,WeatherDisplay:10.37,2013-02-04 00:29:00,
2013-02-03 19:34:00,25.7,16.3,29.64,West,267,4.0,4.0,67,0.00,CLR,FEW,0.01,WeatherDisplay:10.37,2013-02-04 00:34:00,
2013-02-03 19:39:00,25.5,16.1,29.64,West,262,4.6,4.6,67,0.00,CLR,FEW,0.01,WeatherDisplay:10.37,2013-02-04 00:39:00,
2013-02-03 19:44:00,25.6,16.5,29.64,West,267,4.6,4.6,68,0.00,CLR,FEW,0.01,WeatherDisplay:10.37,2013-02-04 00:44:00,
2013-02-03 19:49:00,25.7,16.6,29.64,West,271,3.5,3.5,68,0.00,CLR,FEW,0.01,WeatherDisplay:10.37,2013-02-04 00:49:00,
2013-02-03 19:54:00,25.6,16.5,29.64,West,264,5.8,5.8,68,0.00,CLR,FEW,0.01,WeatherDisplay:10.37,2013-02-04 00:54:00,
2013-02-03 19:59:00,25.8,16.7,29.65,WSW,257,4.6,4.6,68,0.00,CLR,FEW,0.01,WeatherDisplay:10.37,2013-02-04 00:59:00,
2013-02-03 20:04:00,25.5,16.7,29.65,West,261,3.5,3.5,69,0.00,CLR,FEW,0.01,WeatherDisplay:10.37,2013-02-04 01:04:00,
2013-02-03 20:09:00,25.4,16.6,29.64,West,264,5.8,5.8,69,0.00,CLR,FEW,0.01,WeatherDisplay:10.37,2013-02-04 01:09:00,
2013-02-03 20:14:00,25.2,16.1,29.65,West,262,3.5,3.5,68,0.00,CLR,FEW,0.01,WeatherDisplay:10.37,2013-02-04 01:14:00,
2013-02-03 20:19:00,24.9,16.2,29.65,West,260,4.6,4.6,69,0.00,CLR,FEW,0.01,WeatherDisplay:10.37,2013-02-04 01:19:00,
2013-02-03 20:24:00,25.0,16.3,29.65,WSW,255,3.5,3.5,69,0.00,CLR,FEW,0.01,WeatherDisplay:10.37,2013-02-04 01:24:00,
2013-02-03 20:29:00,24.9,16.2,29.65,WSW,252,3.5,3.5,69,0.00,CLR,FEW,0.01,WeatherDisplay:10.37,2013-02-04 01:29:00,
2013-02-03 20:34:00,24.5,15.8,29.65,WSW,247,4.6,4.6,69,0.00,CLR,FEW,0.01,WeatherDisplay:10.37,2013-02-04 01:34:00,
2013-02-03 20:39:00,24.6,15.9,29.65,WSW,247,3.5,3.5,69,0.00,CLR,FEW,0.01,WeatherDisplay:10.37,2013-02-04 01:39:00,
2013-02-03 20:44:00,24.6,15.9,29.65,WSW,247,2.3,2.3,69,0.00,CLR,FEW,0.01,WeatherDisplay:10.37,2013-02-04 01:44:00,
2013-02-03 20:49:00,24.6,15.9,29.65,WSW,253,3.5,3.5,69,0.00,CLR,FEW,0.01,WeatherDisplay:10.37,2013-02-04 01:49:00,
2013-02-03 20:54:00,24.7,16.3,29.65,WSW,254,3.5,3.5,70,0.00,CLR,FEW,0.01,WeatherDisplay:10.37,2013-02-04 01:54:00,
2013-02-03 20:59:00,24.6,15.9,29.65,WSW,254,3.0,3.0,69,0.00,CLR,FEW,0.01,WeatherDisplay:10.37,2013-02-04 01:59:00,
2013-02-03 21:04:00,24.5,15.8,29.66,WSW,255,3.5,3.5,69,0.00,CLR,FEW,0.01,WeatherDisplay:10.37,2013-02-04 02:04:00,
2013-02-03 21:09:00,24.5,15.8,29.66,WSW,254,3.5,3.5,69,0.00,CLR,FEW,0.01,WeatherDisplay:10.37,2013-02-04 02:09:00,
2013-02-03 21:14:00,24.4,15.7,29.66,WSW,256,2.3,2.3,69,0.00,CLR,FEW,0.01,WeatherDisplay:10.37,2013-02-04 02:14:00,
2013-02-03 21:19:00,24.3,15.9,29.66,WSW,252,3.5,3.5,70,0.00,CLR,FEW,0.01,WeatherDisplay:10.37,2013-02-04 02:19:00,
2013-02-03 21:24:00,24.3,15.9,29.66,WSW,253,3.5,3.5,70,0.00,CLR,FEW,0.01,WeatherDisplay:10.37,2013-02-04 02:24:00,
2013-02-03 21:29:00,24.1,15.7,29.65,WSW,253,1.1,1.1,70,0.00,CLR,FEW,0.01,WeatherDisplay:10.37,2013-02-04 02:29:00,
2013-02-03 21:34:00,24.1,15.7,29.65,WSW,253,3.5,3.5,70,0.00,CLR,FEW,0.01,WeatherDisplay:10.37,2013-02-04 02:34:00,
2013-02-03 21:39:00,24.1,15.7,29.65,WSW,249,4.0,4.0,70,0.00,CLR,FEW,0.01,WeatherDisplay:10.37,2013-02-04 02:39:00,
2013-02-03 21:44:00,24.3,15.9,29.65,WSW,249,4.0,4.0,70,0.00,CLR,FEW,0.01,WeatherDisplay:10.37,2013-02-04 02:44:00,
2013-02-03 21:49:00,24.1,15.7,29.65,WSW,248,0.0,0.0,70,0.00,CLR,FEW,0.01,WeatherDisplay:10.37,2013-02-04 02:49:00,
2013-02-03 21:54:00,23.9,15.5,29.65,WSW,249,1.0,0.0,70,0.00,CLR,FEW,0.01,WeatherDisplay:10.37,2013-02-04 02:54:00,
2013-02-03 21:59:00,23.9,15.5,29.64,WSW,248,1.1,1.1,70,0.00,CLR,FEW,0.01,WeatherDisplay:10.37,2013-02-04 02:59:00,
2013-02-03 22:04:00,23.8,15.4,29.65,WSW,248,3.5,3.5,70,0.00,CLR,FEW,0.01,WeatherDisplay:10.37,2013-02-04 03:04:00,
2013-02-03 22:09:00,23.9,15.5,29.65,WSW,248,0.0,0.0,70,0.00,CLR,FEW,0.01,WeatherDisplay:10.37,2013-02-04 03:09:00,
2013-02-03 22:14:00,23.8,15.4,29.64,WSW,248,2.3,2.3,70,0.00,CLR,FEW,0.01,WeatherDisplay:10.37,2013-02-04 03:14:00,
2013-02-03 22:19:00,24.0,16.0,29.64,WSW,248,3.5,3.5,71,0.00,CLR,FEW,0.01,WeatherDisplay:10.37,2013-02-04 03:19:00,
2013-02-03 22:24:00,24.1,16.1,29.65,WSW,248,3.5,3.5,71,0.00,CLR,FEW,0.01,WeatherDisplay:10.37,2013-02-04 03:24:00,
2013-02-03 22:29:00,24.1,16.1,29.64,WSW,247,4.6,4.6,71,0.00,CLR,FEW,0.01,WeatherDisplay:10.37,2013-02-04 03:29:00,
2013-02-03 22:34:00,24.2,16.5,29.64,WSW,250,4.0,4.0,72,0.00,CLR,FEW,0.01,WeatherDisplay:10.37,2013-02-04 03:34:00,
2013-02-03 22:39:00,24.3,16.6,29.64,WSW,243,6.0,6.0,72,0.00,CLR,FEW,0.01,WeatherDisplay:10.37,2013-02-04 03:39:00,
2013-02-03 22:44:00,24.4,16.7,29.65,WSW,243,4.6,4.6,72,0.00,CLR,FEW,0.01,WeatherDisplay:10.37,2013-02-04 03:44:00,
2013-02-03 22:49:00,24.4,16.7,29.65,WSW,242,3.5,3.5,72,0.00,CLR,FEW,0.01,WeatherDisplay:10.37,2013-02-04 03:49:00,
2013-02-03 22:54:00,24.5,16.8,29.64,WSW,250,3.5,3.5,72,0.00,CLR,FEW,0.01,WeatherDisplay:10.37,2013-02-04 03:54:00,
2013-02-03 22:59:00,24.6,16.9,29.65,WSW,248,3.5,3.5,72,0.00,CLR,FEW,0.01,WeatherDisplay:10.37,2013-02-04 03:59:00,
2013-02-03 23:04:00,24.6,16.9,29.64,WSW,252,3.5,3.5,72,0.00,CLR,FEW,0.01,WeatherDisplay:10.37,2013-02-04 04:04:00,
2013-02-03 23:09:00,24.5,16.8,29.64,WSW,248,3.5,3.5,72,0.00,CLR,FEW,0.01,WeatherDisplay:10.37,2013-02-04 04:09:00,
2013-02-03 23:14:00,24.5,16.8,29.64,WSW,247,3.5,3.5,72,0.00,CLR,FEW,0.01,WeatherDisplay:10.37,2013-02-04 04:14:00,
2013-02-03 23:19:00,24.4,16.7,29.64,WSW,242,4.0,4.0,72,0.00,CLR,FEW,0.01,WeatherDisplay:10.37,2013-02-04 04:19:00,
2013-02-03 23:24:00,24.3,16.6,29.64,WSW,239,3.5,3.5,72,0.00,CLR,FEW,0.01,WeatherDisplay:10.37,2013-02-04 04:24:00,
2013-02-03 23:29:00,24.4,16.7,29.64,WSW,244,3.5,3.5,72,0.00,CLR,FEW,0.01,WeatherDisplay:10.37,2013-02-04 04:29:00,
2013-02-03 23:34:00,24.4,16.7,29.64,WSW,241,4.6,4.6,72,0.00,CLR,FEW,0.01,WeatherDisplay:10.37,2013-02-04 04:34:00,
2013-02-03 23:39:00,24.4,17.0,29.64,WSW,240,4.0,4.0,73,0.00,CLR,FEW,0.01,WeatherDisplay:10.37,2013-02-04 04:39:00,
2013-02-03 23:44:00,24.3,16.6,29.64,SW,236,3.5,3.5,72,0.00,CLR,FEW,0.01,WeatherDisplay:10.37,2013-02-04 04:44:00,
2013-02-03 23:49:00,24.2,16.8,29.64,SW,227,5.8,5.8,73,0.00,CLR,FEW,0.01,WeatherDisplay:10.37,2013-02-04 04:49:00,
2013-02-03 23:54:00,24.1,16.7,29.64,SW,234,4.6,4.6,73,0.00,CLR,FEW,0.01,WeatherDisplay:10.37,2013-02-04 04:54:00,
2013-02-03 23:59:00,24.2,16.8,29.65,SW,236,4.6,4.6,73,0.00,CLR,FEW,0.01,WeatherDisplay:10.37,2013-02-04 04:59:00,